Point Lay, AK

1:08 AM AKST on February 06, 2016 (GMT -0900)
Point Lay

Weather History for PPIZ - September, 2013

Change the Weather History Date:

Saturday, September 21, 2013

  Actual Average Record
Temperature  
Mean Temperature 30 °F -  
Max Temperature 32 °F 35 °F 46 °F (2005)
Min Temperature 28 °F 29 °F 24 °F (2015)
Degree Days  
Heating Degree Days 35    
Moisture  
Dew Point 29 °F    
Average Humidity 94    
Maximum Humidity 100    
Minimum Humidity 85    
Precipitation  
Precipitation 0.00 in - - ()
Sea Level Pressure  
Sea Level Pressure 29.44 in    
Wind  
Wind Speed 16 mph (NNE)    
Max Wind Speed 22 mph    
Max Gust Speed 28 mph    
Visibility 6 miles    
Events Snow    
Averages and records for this station are not official NWS values.
T = Trace of Precipitation, MM = Missing Value Source: NWS Daily Summary

Daily Weather History Graph

Daily Weather History Graph

Search for Another Location

Airport or City:

Trip Planner

Search our weather history database for the weather conditions in past years. The results will help you decide how hot, cold, wet, or windy it might be!

Date:

Astronomy

Sep. 21, 2013 Rise Set
Actual Time 8:30 AM AKDT 8:57 PM AKDT
Civil Twilight 7:29 AM AKDT 9:57 PM AKDT
Nautical Twilight 6:10 AM AKDT 11:15 PM AKDT
Astronomical Twilight 4:19 AM AKDT 1:01 AM AKDT
Moon 8:18 PM AKDT (9/21) 12:51 PM AKDT (9/21)
Length of Visible Light 14h 28m
Length of Day
12h 26m
Waning Gibbous, 93% of the Moon is Illuminated
Sep 21
Waning Gibbous
Sep 26
Last Quarter
Oct 4
New
Oct 11
First Quarter
Oct 18
Full

Hourly Weather History & Observations

Time (AKDT) Temp. Windchill Dew Point Humidity Pressure Visibility Wind Dir Wind Speed Gust Speed Precip Events Conditions
12:00 AM 30.2 °F 19.3 °F 28.4 °F 93% 29.40 in 6.0 mi NNE 15.0 mph - 0.00 in Snow Light Snow
12:56 AM 30.2 °F 18.5 °F 28.4 °F 93% 29.39 in 10.0 mi North 17.3 mph - N/A Snow Light Snow
1:40 AM 30.2 °F 18.9 °F 28.4 °F 93% 29.39 in 6.0 mi North 16.1 mph - 0.00 in Snow Light Snow
1:56 AM 31.1 °F 19.3 °F 29.1 °F 92% 29.39 in 6.0 mi North 18.4 mph - 0.00 in Snow Light Snow
2:15 AM 30.2 °F 18.1 °F 28.4 °F 93% 29.38 in 6.0 mi North 18.4 mph - 0.00 in Snow Light Snow
2:46 AM 30.2 °F 17.8 °F 30.2 °F 100% 29.38 in 5.0 mi North 19.6 mph - 0.00 in Snow Light Snow
2:56 AM 31.1 °F 18.6 °F 29.1 °F 92% 29.39 in 4.0 mi North 20.7 mph - 0.00 in Snow Light Snow
3:26 AM 30.2 °F 17.4 °F 30.2 °F 100% 29.38 in 2.5 mi North 20.7 mph - 0.00 in Snow Light Snow
3:28 AM 30.2 °F 17.4 °F 30.2 °F 100% 29.38 in 3.0 mi North 20.7 mph - 0.00 in Snow Light Snow
3:36 AM 30.2 °F 17.4 °F 30.2 °F 100% 29.38 in 3.0 mi North 20.7 mph - 0.00 in Snow Light Snow
3:46 AM 30.2 °F 17.1 °F 30.2 °F 100% 29.38 in 4.0 mi North 21.9 mph - 0.00 in Snow Light Snow
3:56 AM 30.2 °F 17.4 °F 30.2 °F 100% 29.38 in 5.0 mi North 20.7 mph - N/A Snow Light Snow
4:10 AM 30.2 °F 17.4 °F 30.2 °F 100% 29.38 in 4.0 mi North 20.7 mph - 0.00 in Snow Light Snow
4:17 AM 30.2 °F 17.1 °F 30.2 °F 100% 29.38 in 5.0 mi North 21.9 mph - 0.00 in Snow Light Snow
4:56 AM 31.1 °F 18.6 °F 30.0 °F 96% 29.40 in 5.0 mi North 20.7 mph 27.6 mph 0.00 in Snow Light Snow
5:28 AM 30.2 °F 17.8 °F 30.2 °F 100% 29.39 in 5.0 mi NNE 19.6 mph - 0.00 in Snow Light Snow
5:35 AM 30.2 °F 17.8 °F 30.2 °F 100% 29.39 in 8.0 mi NNE 19.6 mph - 0.00 in Snow Light Snow
5:56 AM 31.1 °F 19.3 °F 30.0 °F 96% 29.41 in 8.0 mi NNE 18.4 mph - 0.00 in Snow Light Snow
6:27 AM 30.2 °F 18.5 °F 30.2 °F 100% 29.40 in 5.0 mi North 17.3 mph - 0.00 in Snow Light Snow
6:34 AM 30.2 °F 18.5 °F 30.2 °F 100% 29.40 in 5.0 mi North 17.3 mph - 0.00 in Snow Light Snow
6:56 AM 30.2 °F 18.5 °F 30.2 °F 100% 29.40 in 6.0 mi North 17.3 mph - N/A Snow Light Snow
7:11 AM 30.2 °F 18.9 °F 28.4 °F 93% 29.40 in 8.0 mi NNE 16.1 mph - 0.00 in Snow Light Snow
7:23 AM 30.2 °F 19.3 °F 28.4 °F 93% 29.40 in 10.0 mi North 15.0 mph - 0.00 in Snow Light Snow
7:29 AM 30.2 °F 18.9 °F 28.4 °F 93% 29.40 in 9.0 mi North 16.1 mph - 0.00 in Snow Light Snow
7:56 AM 31.1 °F 19.3 °F 29.1 °F 92% 29.42 in 10.0 mi NNE 18.4 mph - 0.00 in   Overcast
8:36 AM 30.2 °F 18.1 °F 28.4 °F 93% 29.42 in 10.0 mi NNE 18.4 mph - N/A   Mostly Cloudy
8:45 AM 30.2 °F 18.5 °F 26.6 °F 86% 29.42 in 10.0 mi North 17.3 mph - N/A   Overcast
8:56 AM 30.0 °F 17.9 °F 27.1 °F 89% 29.43 in 10.0 mi North 18.4 mph - N/A   Overcast
9:56 AM 30.0 °F 18.3 °F 28.0 °F 92% 29.44 in 10.0 mi North 17.3 mph - N/A   Overcast
10:08 AM 30.2 °F 18.1 °F 28.4 °F 93% 29.43 in 4.0 mi North 18.4 mph - 0.00 in Snow Light Snow
10:56 AM 31.1 °F 20.1 °F 29.1 °F 92% 29.44 in 10.0 mi NNE 16.1 mph - 0.00 in   Overcast
11:14 AM 30.2 °F 19.8 °F 28.4 °F 93% 29.43 in 8.0 mi NNE 13.8 mph - 0.00 in Snow Light Snow
11:21 AM 30.2 °F 19.3 °F 28.4 °F 93% 29.43 in 10.0 mi North 15.0 mph - 0.00 in   Mostly Cloudy
11:36 AM 30.2 °F 18.9 °F 28.4 °F 93% 29.44 in 6.0 mi NNE 16.1 mph - 0.00 in Snow Light Snow
11:56 AM 31.1 °F 20.5 °F 29.1 °F 92% 29.45 in 5.0 mi NNE 15.0 mph - 0.00 in Snow Light Snow
12:56 PM 30.2 °F 19.8 °F 28.4 °F 93% 29.44 in 4.0 mi North 13.8 mph - N/A Snow Light Snow
1:18 PM 30.2 °F 20.8 °F 28.4 °F 93% 29.45 in 4.0 mi North 11.5 mph - 0.00 in Snow Light Snow
1:28 PM 30.2 °F 19.8 °F 28.4 °F 93% 29.45 in 2.5 mi North 13.8 mph - 0.00 in Snow Light Snow
1:33 PM 30.2 °F 20.2 °F 28.4 °F 93% 29.45 in 4.0 mi North 12.7 mph - 0.00 in Snow Light Snow
1:40 PM 30.2 °F 20.2 °F 28.4 °F 93% 29.45 in 4.0 mi North 12.7 mph - 0.00 in Snow Light Snow
1:56 PM 31.1 °F 20.9 °F 29.1 °F 92% 29.46 in 5.0 mi North 13.8 mph - 0.00 in Snow Light Snow
2:16 PM 30.2 °F 19.8 °F 28.4 °F 93% 29.45 in 5.0 mi NNE 13.8 mph - 0.00 in Snow Light Snow
2:56 PM 31.1 °F 20.9 °F 29.1 °F 92% 29.47 in 7.0 mi North 13.8 mph - 0.00 in Snow Light Snow
3:18 PM 32.0 °F 22.5 °F 30.2 °F 93% 29.46 in 4.0 mi North 12.7 mph 16.1 mph 0.00 in Snow Light Snow
3:29 PM 30.2 °F 20.2 °F 28.4 °F 93% 29.46 in 3.0 mi North 12.7 mph - 0.00 in Snow Light Snow
3:56 PM 30.2 °F 20.2 °F 28.4 °F 93% 29.46 in 3.0 mi NNE 12.7 mph - N/A Snow Light Snow
4:36 PM 30.2 °F 19.8 °F 28.4 °F 93% 29.46 in 8.0 mi North 13.8 mph - 0.00 in Snow Light Snow
4:43 PM 30.2 °F 19.8 °F 28.4 °F 93% 29.46 in 9.0 mi North 13.8 mph - 0.00 in Snow Light Snow
4:56 PM 31.1 °F 20.5 °F 29.1 °F 92% 29.48 in 9.0 mi North 15.0 mph - 0.00 in Snow Light Snow
5:41 PM 30.2 °F 20.2 °F 28.4 °F 93% 29.47 in 9.0 mi North 12.7 mph - 0.00 in Snow Light Snow
5:56 PM 31.1 °F 21.9 °F 29.1 °F 92% 29.49 in 9.0 mi North 11.5 mph - 0.00 in Snow Light Snow
6:05 PM 30.2 °F 19.8 °F 28.4 °F 93% 29.48 in 2.5 mi North 13.8 mph - 0.00 in Snow Light Snow
6:10 PM 30.2 °F 20.2 °F 28.4 °F 93% 29.48 in 3.0 mi North 12.7 mph - 0.00 in Snow Light Snow
6:19 PM 30.2 °F 20.8 °F 28.4 °F 93% 29.48 in 4.0 mi North 11.5 mph - 0.00 in Snow Light Snow
6:26 PM 30.2 °F 19.8 °F 28.4 °F 93% 29.48 in 5.0 mi North 13.8 mph - 0.00 in Snow Light Snow
6:33 PM 30.2 °F 20.8 °F 28.4 °F 93% 29.48 in 5.0 mi NNE 11.5 mph - 0.00 in Snow Light Snow
6:56 PM 30.2 °F 20.8 °F 28.4 °F 93% 29.48 in 4.0 mi North 11.5 mph - N/A Snow Light Snow
7:14 PM 30.2 °F 20.2 °F 28.4 °F 93% 29.48 in 2.5 mi North 12.7 mph - 0.00 in Snow Light Snow
7:19 PM 30.2 °F 20.2 °F 28.4 °F 93% 29.48 in 4.0 mi North 12.7 mph - 0.00 in Snow Light Snow
7:26 PM 30.2 °F 20.2 °F 28.4 °F 93% 29.48 in 2.5 mi North 12.7 mph - 0.00 in Snow Light Snow
7:29 PM 30.2 °F 20.2 °F 28.4 °F 93% 29.48 in 1.8 mi North 12.7 mph - 0.00 in Snow Light Snow
7:36 PM 30.2 °F 20.2 °F 28.4 °F 93% 29.48 in 1.2 mi North 12.7 mph - 0.00 in Snow Light Snow
7:42 PM 30.2 °F 20.2 °F 28.4 °F 93% 29.48 in 2.0 mi NNE 12.7 mph - 0.00 in Snow Light Snow
7:56 PM 30.0 °F 20.5 °F 28.0 °F 92% 29.49 in 5.0 mi NNE 11.5 mph - 0.00 in   Overcast
8:03 PM 30.2 °F 20.2 °F 28.4 °F 93% 29.48 in 9.0 mi NNE 12.7 mph - 0.00 in   Overcast
8:29 PM 30.2 °F 21.9 °F 26.6 °F 86% 29.49 in 10.0 mi North 9.2 mph - 0.00 in   Mostly Cloudy
8:56 PM 30.0 °F 19.5 °F 26.1 °F 85% 29.50 in 10.0 mi NNE 13.8 mph - 0.00 in   Overcast
9:21 PM 30.2 °F 21.9 °F 26.6 °F 86% 29.49 in 10.0 mi North 9.2 mph - 0.00 in   Mostly Cloudy
9:28 PM 30.2 °F 21.3 °F 26.6 °F 86% 29.50 in 3.0 mi North 10.4 mph - 0.00 in Snow Light Snow
9:31 PM 30.2 °F 21.3 °F 26.6 °F 86% 29.50 in 2.5 mi North 10.4 mph - 0.00 in Snow Light Snow
9:42 PM 28.4 °F 19.7 °F 28.4 °F 100% 29.50 in 4.0 mi NNE 9.2 mph - 0.00 in Snow Light Snow
9:56 PM 28.4 °F 19.1 °F 28.4 °F 100% 29.50 in 10.0 mi NNE 10.4 mph - N/A Snow Light Snow
10:47 PM 28.4 °F 21.2 °F 26.6 °F 93% 29.50 in 5.0 mi NE 6.9 mph - 0.00 in Snow Light Snow
10:56 PM 28.0 °F 21.7 °F 27.1 °F 96% 29.51 in 10.0 mi NNE 5.8 mph - 0.00 in Snow Light Snow
11:14 PM 28.4 °F 23.3 °F 26.6 °F 93% 29.50 in 10.0 mi NNE 4.6 mph - 0.00 in   Overcast
11:56 PM 29.1 °F - 27.1 °F 92% 29.51 in 9.0 mi Calm Calm - 0.00 in   Overcast